This is the latest recevied weather packets stored in our database for station/object KE9ADS. If no packets are shown the sender has not sent any weather packets the latest 10 day(s).
| Time | Temp. | Humidity | Pressure | Rain* | Wind** | Luminosity | Snow |
|---|---|---|---|---|---|---|---|
| 1777471012 | 11.11° C | 60% | 1019.5 hPa | 0 mm | - | 358 W/m² | - |
| 1777470411 | 10.56° C | 61% | 1019.3 hPa | 0 mm | - | 327 W/m² | - |
| 1777469809 | 10.56° C | 62% | 1019.3 hPa | 0 mm | - | 290 W/m² | - |
| 1777469207 | 10.56° C | 64% | 1019.1 hPa | 0 mm | - | 259 W/m² | - |
| 1777468604 | 10° C | 65% | 1019.2 hPa | 0 mm | - | 226 W/m² | - |
| 1777468002 | 10.56° C | 64% | 1019.3 hPa | 0 mm | - | 197 W/m² | - |
| 1777467399 | 10° C | 65% | 1019.1 hPa | 0 mm | - | 170 W/m² | - |
| 1777466798 | 9.44° C | 66% | 1019.1 hPa | 0 mm | - | 148 W/m² | - |
| 1777466198 | 9.44° C | 68% | 1019.2 hPa | 0 mm | - | 118 W/m² | - |
| 1777465597 | 8.89° C | 69% | 1019.1 hPa | 0 mm | - | 72 W/m² | - |
| 1777464992 | 8.89° C | 68% | 1019 hPa | 0 mm | - | 47 W/m² | - |
| 1777464390 | 8.89° C | 69% | 1019 hPa | 0 mm | - | 42 W/m² | - |
| 1777463786 | 8.89° C | 68% | 1018.9 hPa | 0 mm | - | 29 W/m² | - |
| 1777463183 | 8.89° C | 69% | 1018.7 hPa | 0 mm | - | 30 W/m² | - |
| 1777462581 | 8.89° C | 68% | 1018.7 hPa | 0 mm | - | 18 W/m² | - |
| 1777461978 | 8.89° C | 69% | 1018.5 hPa | 0 mm | - | 11 W/m² | - |
| 1777461376 | 9.44° C | 69% | 1018.6 hPa | 0 mm | - | 6 W/m² | - |
| 1777460773 | 9.44° C | 69% | 1018.4 hPa | 0 mm | - | 3 W/m² | - |
| 1777460171 | 9.44° C | 68% | 1018.5 hPa | 0 mm | - | 1 W/m² | - |
| 1777459565 | 9.44° C | 68% | 1018.5 hPa | 0 mm | - | 0 W/m² | - |
| 1777458966 | 9.44° C | 67% | 1018.3 hPa | 0 mm | - | 0 W/m² | - |
| 1777458364 | 10° C | 67% | 1018.4 hPa | 0 mm | - | 0 W/m² | - |
| 1777457761 | 10° C | 68% | 1018.4 hPa | 0 mm | - | 0 W/m² | - |
| 1777457158 | 10° C | 66% | 1018.2 hPa | 0 mm | - | 0 W/m² | - |
| 1777456554 | 10° C | 68% | 1018.2 hPa | 0 mm | - | 0 W/m² | - |
* Rain latest hour (hover to see other rain measurements)
** Current wind speed in m/s (hover to see current wind gust speed)